Location: Antin
(43.3330°N, 0.2804°E)
Time: 04:25:49
(UTC+00:00)

CZ-2C R/B - Pass Details

Date: 16 October 2021
Orbit: 784 x 871 km, 98.2° (Epoch: 02 December)

Event Time Altitude Azimuth Distance (km) Brightness Sun altitude
Rises 17:48:52 0° 18° (NNE) 3,470 5.6 -7.1°
Reaches altitude 10° 17:51:21 10° 24° (NNE) 2,526 4.9 -7.5°
Maximum altitude 17:56:49 50° 99° (E) 1,097 2.9 -8.5°
Drops below altitude 10° 18:02:10 10° 174° (S) 2,481 5.1 -9.5°
Sets 18:04:35 0° 179° (S) 3,402 5.9 -9.9°
